Location: Jackson Park
(37.2862°N, 79.9123°W)
Time: 11:31:24
(UTC+00:00)

Vanguard 3 - Pass Details

Date: 15 May 2026
Orbit: 507 x 3204 km, 33.3° (Epoch: 11 June)

Event Time Altitude Azimuth Distance (km) Brightness Sun altitude
Rises 16:22:08 0° 207° (SSW) 5,850 11.7 68.2°
Reaches altitude 10° 16:26:07 10° 199° (SSW) 5,176 11.6 68.7°
Maximum altitude 16:40:13 36° 140° (SE) 4,192 11.8 70.1°
Drops below altitude 10° 16:56:37 10° 83° (E) 6,049 11.8 71.2°
Sets 17:01:39 0° 76° (ENE) 6,916 11.9 71.4°
